Regional Weather Roundup
Issued by NWS

Home | Current Version | Previous Version | Graphics & Text | Print | Product List | Glossary On
Versions: 1 2 3 4 5 6 7 8 9 10 11 12 13 14 15 16 17 18 19 20 21 22 23 24 25 26 27 28 29 30 31 32 33 34 35 36 37 38 39 40 41 42 43 44 45 46 47 48 49 50
000
ASUS43 KMKX 261621
RWRWI

WISCONSIN REGIONAL WEATHER ROUNDUP
NATIONAL WEATHER SERVICE MILWAUKEE/SULLIVAN WI
1100 AM CDT SUN APR 26 2015

NOTE: "FAIR" INDICATES FEW OR NO CLOUDS BELOW 12,000 FEET WITH NO
SIGNIFICANT WEATHER AND/OR OBSTRUCTIONS TO VISIBILITY.

WIZ001-002-006>008-014>016-023>028-261700-
NORTHWEST WISCONSIN

CITY           SKY/WX    TMP DP  RH WIND       PRES   REMARKS
SUPERIOR ARPT  SUNNY     44  21  39 NE8       30.20R
ASHLAND        SUNNY     49  23  36 NE10      30.18S
HAYWARD        SUNNY     50  21  32 CALM      30.14S
SIREN          SUNNY     51  20  28 CALM      30.14S
CUMBERLAND     SUNNY     46  19  34 E5        30.13S
RICE LAKE      SUNNY     50  19  29 CALM      30.14S
CHETEK         SUNNY     50  23  34 NE5       30.13S
LADYSMITH      SUNNY     51  22  31 NE5       30.14S
EAU CLAIRE       N/A     50  21  32 VRB3      30.12S
MENOMONIE      SUNNY     53  20  27 N7        30.13S
NEW RICHMOND   SUNNY     51  21  30 SE3       30.14R
OSCEOLA        SUNNY     52  24  33 CALM      30.16S
$$

WIZ003>005-009-010-017-018-261700-
NORTH CENTRAL WISCONSIN

CITY           SKY/WX    TMP DP  RH WIND       PRES   REMARKS
MANITOWISH WTR SUNNY     48  19  31 N8        30.11S
ARBOR VITAE    SUNNY     52  19  27 N8G16     30.10S
WOODRUFF       SUNNY     52  19  27 N8G16     30.10S
RHINELANDER    SUNNY     50  19  29 N12G18    30.09S
EAGLE RIVER    SUNNY     51  15  23 NE14      30.09S
LAND O LAKES   SUNNY     49  17  28 NW9G17    30.10S
PHILLIPS       SUNNY     50  22  33 N6        30.11S
TOMAHAWK       SUNNY     50  20  30 CALM      30.10S
MEDFORD        SUNNY     49  24  36 N6        30.10S
MERRILL        SUNNY     52  22  31 N7        30.09R
$$

WIZ029-030-035-036-043>047-261700-
CENTRAL WISCONSIN

CITY           SKY/WX    TMP DP  RH WIND       PRES   REMARKS
WAUSAU         SUNNY     53  23  31 N6        30.07S
MOSINEE        SUNNY     50  23  34 VRB5      30.10R
MARSHFIELD     SUNNY     50  23  34 VRB3      30.09S
STEVENS POINT  SUNNY     50  21  31 NW7       30.09S
WAUPACA        SUNNY     54  21  27 NE6       30.09S
WAUTOMA        SUNNY     53  19  26 NE7       30.09S
WISC RAPIDS    SUNNY     52  19  27 N7        30.10S
CAMP DOUGLAS   SUNNY     52  23  32 CALM      30.09S
$$

WIZ011>013-019>022-031-037>040-048>050-261700-
NORTHEAST WISCONSIN

CITY           SKY/WX    TMP DP  RH WIND       PRES   REMARKS
ANTIGO         SUNNY     50  24  36 N6        30.08S
SHAWANO        SUNNY     55  22  28 E3        30.08S
OCONTO         SUNNY     51  26  38 N6        30.07S
STURGEON BAY   SUNNY     46  27  46 N12       30.09S
GREEN BAY      SUNNY     54  27  35 E6        30.07S
MANITOWOC      SUNNY     53  30  41 VRB7      30.06R
APPLETON       SUNNY     50  21  32 N8        30.07S
CLINTONVILLE   SUNNY     54  21  28 NE7G17    30.07S
OSHKOSH        SUNNY     52  28  39 NE7       30.07S
$$

WIZ032>034-041-042-053>061-261700-
SOUTHWEST WISCONSIN

CITY           SKY/WX    TMP DP  RH WIND       PRES   REMARKS
LA CROSSE      SUNNY     51  26  37 W8        30.11S
SPARTA         SUNNY     53  21  29 E7        30.11S
VIROQUA        SUNNY     51  24  35 E7        30.09S
BOSCOBEL       SUNNY     53  26  35 NE7       30.10R
PRAIRIE DU CHI SUNNY     52  24  34 SE5       30.09S
PLATTEVILLE    SUNNY     51  29  42 NE8       30.07S
$$

WIZ056-057-062-063-064-067-068-261700-
SOUTH CENTRAL WISCONSIN

CITY           SKY/WX    TMP DP  RH WIND       PRES   REMARKS
REEDSBURG      SUNNY     49  26  40 CALM      30.09S
BARABOO/DELLS  SUNNY     50  24  35 NE5       30.09R
LONE ROCK      SUNNY     50  27  40 CALM      30.10R
MINERAL POINT  SUNNY     52  27  37 E6        30.08R
MADISON        SUNNY     51  28  41 N5        30.08R
MIDDLETON      SUNNY     51  26  39 N5        30.09R
WATERTOWN      SUNNY     52  28  39 N6        30.06S
MONROE         SUNNY     50  30  46 E5        30.06S
JANESVILLE     SUNNY     54  25  32 E5        30.06R
$$

WIZ051-052-058>065-066-070>072-261700-
SOUTHEAST WISCONSIN

CITY           SKY/WX    TMP DP  RH WIND       PRES   REMARKS
MILWAUKEE      SUNNY     45  30  55 NE13      30.07R
WAUKESHA       SUNNY     50  27  40 N7        30.06R
MILWAUKEE/TIMM SUNNY     52  27  37 CALM      30.06R
RACINE         SUNNY     45  30  55 N12       30.08R
BURLINGTON     SUNNY     51  26  38 N9        30.04S
KENOSHA        SUNNY     51  33  50 NE12      30.05R
FOND DU LAC    SUNNY     50  30  46 NE9       30.07R
SHEBOYGAN      SUNNY     53  28  38 N9        30.05S
WEST BEND      SUNNY     52  25  35 N10       30.05R
JUNEAU         SUNNY     51  28  42 N7        30.07S
$$

LSZ147-162-261700-
LAKE SUPERIOR

STATION/POSITION TIME  TEMP    WIND        PRES    WAVE
                       AIR SEA DIR/SP/G            HT/PER
                 (UTC) (F)     (DEG/KT/KT) (MB)    (FT/S)
W MID LAKE BUOY  1550   36 35   30/ 10/ 12 1023.9R   1/ 3
DEVILS ISLAND    1600   37      70/  8/  9 1023.5R
PORT WING        1540   36     330/  7/  7 1022.7R
SAXON HARBOR     1500   38     330/  3/  5 1021.7R
$$

LMZ867-665-643>646-261700-
LAKE MICHIGAN

STATION/POSITION TIME  TEMP    WIND        PRES    WAVE
                       AIR SEA DIR/SP/G            HT/PER
                 (UTC) (F)     (DEG/KT/KT) (MB)    (FT/S)
CHAMBERS ISLAND  1400   40      10/  5/  6 1018.3R
NORTHPORT PIER   1500   39     310/  9/ 10 1018.3R
SISTER BAY       1347   42     340/ 15/ 17   N/A
KEWAUNEE LAKESHO 1500   43      50/  6/  9 1017.0R
SHEBOYGAN LAKESH 1600   39      30/ 12/ 14 1018.9R
PORT WASHINGTON  1540   43      50/ 11/ 14 1018.6R
MILWAUKEE LAKESH 1600   39      40/ 12/ 13   N/A
KENOSHA   LAKESH 1600   40      30/ 15/ 18 1017.6R
$$

TC  - TEMPERATURE IN CELSIUS
VSB - VISIBILITY IN STATUTE MILES
WCI - WIND CHILL INDEX
HX  - HEAT INDEX




USA.gov is the U.S. government's official web portal to all federal, state and local government web resources and services.